�������l�o���
Date,Time,MP-1(��Sv/h),MP-2(��Sv/h),MP-3(��Sv/h),MP-4(��Sv/h),MP-5(��Sv/h),MP-6(��Sv/h),MP-7(��Sv/h),MP-8(��Sv/h),����,����(m/s),���J
2023/02/08,00:00,0.563,0.810,0.513,1.053,0.720,0.326,0.584,0.554,�k�k��,6.4,�L
2023/02/08,00:10,0.565,0.808,0.513,1.052,0.719,0.326,0.583,0.554,�k�k��,6.2,�L
2023/02/08,00:20,0.563,0.807,0.512,1.048,0.720,0.325,0.582,0.554,�k�k��,6.0,�L
2023/02/08,00:30,0.563,0.809,0.513,1.050,0.716,0.325,0.582,0.553,�k�k��,7.1,�L
2023/02/08,00:40,0.562,0.803,0.512,1.045,0.716,0.326,0.584,0.553,�k�k��,5.9,�L
2023/02/08,00:50,0.561,0.800,0.512,1.043,0.713,0.325,0.582,0.553,�k�k��,7.7,�L
2023/02/08,01:00,0.559,0.800,0.512,1.040,0.712,0.327,0.581,0.552,�k�k��,6.2,�L
2023/02/08,01:10,0.561,0.799,0.510,1.039,0.712,0.327,0.581,0.552,�k�k��,5.9,�L
2023/02/08,01:20,0.558,0.798,0.509,1.036,0.711,0.325,0.579,0.551,�k�k��,5.2,�L
2023/02/08,01:30,0.558,0.795,0.509,1.034,0.707,0.324,0.579,0.551,�k�k��,5.8,�L
2023/02/08,01:40,0.555,0.795,0.508,1.031,0.709,0.325,0.579,0.550,�k�k��,6.2,�L
2023/02/08,01:50,0.556,0.794,0.508,1.029,0.706,0.324,0.578,0.552,�k�k��,6.5,�L
2023/02/08,02:00,0.555,0.791,0.509,1.027,0.707,0.325,0.579,0.550,�k�k��,7.3,�L
2023/02/08,02:10,0.556,0.790,0.508,1.024,0.706,0.325,0.577,0.550,�k�k��,6.9,�L
2023/02/08,02:20,0.554,0.792,0.508,1.022,0.706,0.324,0.577,0.550,�k�k��,8.1,�L
2023/02/08,02:30,0.554,0.790,0.508,1.022,0.706,0.324,0.577,0.549,�k�k��,7.0,�L
2023/02/08,02:40,0.554,0.791,0.507,1.022,0.705,0.325,0.577,0.549,�k�k��,8.6,�L
2023/02/08,02:50,0.555,0.790,0.506,1.020,0.703,0.322,0.578,0.550,�k��,8.1,�L
2023/02/08,03:00,0.551,0.790,0.504,1.018,0.703,0.324,0.577,0.549,�k�k��,9.2,�L
2023/02/08,03:10,0.552,0.789,0.504,1.018,0.704,0.321,0.577,0.548,�k�k��,8.7,�L
2023/02/08,03:20,0.552,0.789,0.504,1.015,0.702,0.321,0.578,0.549,�k�k��,8.3,�L
2023/02/08,03:30,0.551,0.788,0.502,1.019,0.703,0.321,0.575,0.549,�k�k��,7.1,�L
2023/02/08,03:40,0.551,0.788,0.504,1.017,0.703,0.318,0.575,0.549,�k��,7.9,�L
2023/02/08,03:50,0.550,0.787,0.504,1.018,0.700,0.320,0.576,0.548,�k�k��,7.9,�L
2023/02/08,04:00,0.550,0.786,0.503,1.016,0.703,0.320,0.576,0.549,�k�k��,8.0,�L
2023/02/08,04:10,0.550,0.787,0.502,1.017,0.701,0.320,0.577,0.548,�k�k��,8.8,�L
2023/02/08,04:20,0.549,0.787,0.501,1.017,0.700,0.321,0.575,0.549,�k�k��,7.8,�L
2023/02/08,04:30,0.549,0.787,0.501,1.016,0.702,0.320,0.575,0.548,�k�k��,8.8,�L
2023/02/08,04:40,0.549,0.789,0.501,1.017,0.701,0.320,0.576,0.549,�k��,7.5,�L
2023/02/08,04:50,0.548,0.787,0.500,1.015,0.701,0.319,0.576,0.548,�k�k��,7.5,�L
2023/02/08,05:00,0.548,0.788,0.501,1.017,0.701,0.319,0.576,0.549,�k�k��,9.1,�L
2023/02/08,05:10,0.546,0.786,0.502,1.015,0.700,0.318,0.577,0.550,�k�k��,7.5,�L
2023/02/08,05:20,0.548,0.787,0.500,1.017,0.699,0.320,0.575,0.549,�k��,8.2,�L
2023/02/08,05:30,0.549,0.786,0.502,1.016,0.700,0.318,0.576,0.548,�k�k��,8.2,�L
2023/02/08,05:40,0.547,0.789,0.501,1.016,0.700,0.321,0.576,0.547,�k�k��,8.5,�L
2023/02/08,05:50,0.547,0.787,0.500,1.016,0.700,0.318,0.577,0.548,�k�k��,8.6,�L
2023/02/08,06:00,0.549,0.787,0.501,1.018,0.702,0.320,0.576,0.546,�k�k��,8.7,�L
2023/02/08,06:10,0.548,0.789,0.503,1.017,0.701,0.318,0.577,0.549,�k�k��,8.5,�L
2023/02/08,06:20,0.548,0.785,0.502,1.014,0.699,0.318,0.577,0.549,�k�k��,8.5,�L
2023/02/08,06:30,0.548,0.789,0.500,1.015,0.701,0.319,0.577,0.548,�k�k��,8.1,��
2023/02/08,06:40,0.546,0.786,0.501,1.013,0.700,0.319,0.576,0.548,�k�k��,8.0,��
2023/02/08,06:50,0.547,0.787,0.500,1.015,0.700,0.316,0.576,0.548,�k��,7.9,��
2023/02/08,07:00,0.547,0.786,0.501,1.015,0.701,0.318,0.576,0.547,�k�k��,8.0,��
2023/02/08,07:10,0.547,0.785,0.498,1.016,0.699,0.317,0.576,0.548,�k��,8.1,��
2023/02/08,07:20,0.548,0.787,0.499,1.013,0.699,0.318,0.577,0.549,�k��,7.7,��
2023/02/08,07:30,0.548,0.785,0.500,1.016,0.698,0.317,0.577,0.549,�k��,8.4,��
2023/02/08,07:40,0.548,0.788,0.500,1.016,0.700,0.316,0.576,0.548,�k�k��,7.5,�L
2023/02/08,07:50,0.548,0.790,0.502,1.015,0.700,0.317,0.577,0.547,�k�k��,6.7,��
2023/02/08,08:00,0.547,0.787,0.501,1.016,0.701,0.317,0.577,0.546,�k�k��,7.2,��
2023/02/08,08:10,0.549,0.788,0.500,1.019,0.702,0.317,0.576,0.548,�k�k��,6.0,��
2023/02/08,08:20,0.548,0.788,0.501,1.017,0.700,0.317,0.578,0.548,�k�k��,6.1,��
2023/02/08,08:30,0.548,0.787,0.501,1.015,0.702,0.318,0.577,0.547,�k�k��,6.3,��
2023/02/08,08:40,0.548,0.788,0.500,1.017,0.702,0.317,0.577,0.548,�k�k��,6.6,��
2023/02/08,08:50,0.550,0.789,0.501,1.016,0.701,0.318,0.577,0.549,�k�k��,7.7,��
2023/02/08,09:00,0.548,0.789,0.500,1.016,0.702,0.318,0.577,0.547,�k�k��,8.0,��
2023/02/08,09:10,0.549,0.788,0.500,1.016,0.703,0.318,0.577,0.548,�k�k��,7.9,��
2023/02/08,09:20,0.545,0.790,0.500,1.019,0.702,0.318,0.578,0.549,�k�k��,6.6,��
2023/02/08,09:30,0.545,0.789,0.500,1.019,0.702,0.317,0.577,0.549,�k�k��,7.1,��
2023/02/08,09:40,0.546,0.791,0.502,1.017,0.701,0.318,0.575,0.547,�k�k��,6.5,��
2023/02/08,09:50,0.547,0.791,0.500,1.018,0.703,0.318,0.577,0.548,�k�k��,7.1,��
2023/02/08,10:00,0.548,0.793,0.501,1.021,0.705,0.318,0.578,0.549,�k�k��,9.0,��
2023/02/08,10:10,0.546,0.792,0.500,1.017,0.705,0.318,0.577,0.549,�k�k��,7.7,��
2023/02/08,10:20,0.547,0.791,0.503,1.019,0.705,0.319,0.577,0.549,�k,7.5,��
2023/02/08,10:30,0.547,0.790,0.501,1.018,0.703,0.319,0.577,0.550,�k,7.7,��
2023/02/08,10:40,0.546,0.790,0.503,1.019,0.705,0.318,0.577,0.548,�k�k��,8.5,��
2023/02/08,10:50,0.547,0.790,0.502,1.021,0.705,0.318,0.575,0.550,�k,8.7,��
2023/02/08,11:00,0.549,0.790,0.502,1.021,0.704,0.319,0.575,0.550,�k,8.1,��
2023/02/08,11:10,0.546,0.792,0.502,1.021,0.704,0.319,0.575,0.551,�k�k��,7.0,��
2023/02/08,11:20,0.548,0.792,0.504,1.020,0.705,0.318,0.576,0.550,�k,6.2,��
2023/02/08,11:30,0.548,0.791,0.503,1.020,0.707,0.319,0.576,0.550,�k,6.7,��
2023/02/08,11:40,0.550,0.791,0.505,1.020,0.707,0.317,0.575,0.549,�k�k��,5.6,��
2023/02/08,11:50,0.552,0.791,0.502,1.022,0.706,0.316,0.576,0.549,�k,4.8,��
2023/02/08,12:00,0.552,0.790,0.505,1.021,0.705,0.318,0.575,0.550,�k�k��,4.9,��
2023/02/08,12:10,0.552,0.792,0.505,1.022,0.707,0.320,0.576,0.550,�k,5.1,��
2023/02/08,12:20,0.551,0.792,0.504,1.023,0.708,0.317,0.576,0.549,�k�k��,4.4,��
2023/02/08,12:30,0.552,0.793,0.506,1.022,0.709,0.319,0.575,0.550,�k�k��,4.5,��
2023/02/08,12:40,0.553,0.792,0.504,1.022,0.704,0.317,0.576,0.550,�k,4.6,��
2023/02/08,12:50,0.553,0.792,0.505,1.024,0.708,0.319,0.576,0.551,�k�k��,3.5,��
2023/02/08,13:00,0.554,0.790,0.506,1.021,0.708,0.318,0.576,0.550,�k��,4.2,��
2023/02/08,13:10,0.556,0.790,0.505,1.024,0.710,0.317,0.576,0.553,�k�k��,4.4,��
2023/02/08,13:20,0.555,0.792,0.506,1.023,0.708,0.320,0.577,0.549,�k�k��,4.0,��
2023/02/08,13:30,0.555,0.795,0.506,1.024,0.709,0.319,0.576,0.550,�k�k��,4.1,��
2023/02/08,13:40,0.555,0.791,0.507,1.022,0.707,0.319,0.577,0.548,�k�k��,4.0,��
2023/02/08,13:50,0.555,0.794,0.506,1.023,0.708,0.320,0.576,0.548,�k�k��,4.7,��
2023/02/08,14:00,0.554,0.795,0.506,1.025,0.710,0.320,0.577,0.548,�k�k��,4.5,��
2023/02/08,14:10,0.557,0.797,0.506,1.024,0.709,0.319,0.575,0.548,�k�k��,4.6,��
2023/02/08,14:20,0.553,0.798,0.506,1.024,0.710,0.319,0.577,0.549,�k�k��,4.8,�L
2023/02/08,14:30,0.554,0.797,0.506,1.023,0.709,0.320,0.577,0.549,�k�k��,3.3,��
2023/02/08,14:40,0.555,0.794,0.505,1.023,0.709,0.319,0.578,0.549,�k,3.8,��
2023/02/08,14:50,0.554,0.796,0.506,1.024,0.711,0.317,0.577,0.552,�k,3.4,�L
2023/02/08,15:00,0.556,0.795,0.506,1.024,0.711,0.318,0.578,0.551,�k,4.7,�L
2023/02/08,15:10,0.555,0.798,0.508,1.023,0.712,0.319,0.577,0.551,�k�k��,4.6,�L
2023/02/08,15:20,0.555,0.797,0.507,1.024,0.711,0.318,0.577,0.552,�k�k��,4.9,�L
2023/02/08,15:30,0.554,0.801,0.507,1.025,0.710,0.319,0.578,0.550,�k,3.5,��
2023/02/08,15:40,0.556,0.800,0.507,1.025,0.710,0.320,0.576,0.551,�k,2.9,��
2023/02/08,15:50,0.556,0.799,0.506,1.026,0.711,0.320,0.577,0.551,�k�k��,2.3,��
2023/02/08,16:00,0.555,0.799,0.506,1.026,0.711,0.320,0.579,0.551,�k,2.6,��
2023/02/08,16:10,0.555,0.798,0.505,1.026,0.713,0.319,0.578,0.549,�k,2.3,��
2023/02/08,16:20,0.556,0.799,0.506,1.024,0.712,0.320,0.579,0.552,�k,3.3,��
2023/02/08,16:30,0.554,0.801,0.508,1.024,0.712,0.319,0.580,0.551,�k,2.6,��
2023/02/08,16:40,0.556,0.800,0.508,1.025,0.710,0.319,0.580,0.552,�k,3.0,��
2023/02/08,16:50,0.556,0.798,0.507,1.025,0.711,0.318,0.579,0.551,�k�k��,3.0,��
2023/02/08,17:00,0.554,0.798,0.507,1.024,0.710,0.319,0.580,0.551,�k�k��,2.3,��
2023/02/08,17:10,0.556,0.800,0.507,1.024,0.709,0.319,0.578,0.550,�k�k��,3.5,��
2023/02/08,17:20,0.553,0.801,0.508,1.025,0.712,0.319,0.579,0.552,�k�k��,4.1,��
2023/02/08,17:30,0.554,0.799,0.508,1.026,0.712,0.320,0.578,0.549,�k�k��,4.0,��
2023/02/08,17:40,0.554,0.799,0.505,1.025,0.712,0.319,0.578,0.550,�k�k��,4.0,��
2023/02/08,17:50,0.555,0.799,0.507,1.023,0.712,0.317,0.578,0.550,�k��,4.5,�L
2023/02/08,18:00,0.555,0.801,0.505,1.025,0.712,0.320,0.578,0.551,�k��,5.0,�L
2023/02/08,18:10,0.555,0.801,0.506,1.028,0.710,0.319,0.580,0.552,�k��,3.8,�L
2023/02/08,18:20,0.555,0.800,0.507,1.028,0.710,0.319,0.579,0.551,�k��,4.6,�L
2023/02/08,18:30,0.554,0.800,0.508,1.024,0.711,0.319,0.580,0.549,�k��,4.8,��
2023/02/08,18:40,0.554,0.800,0.508,1.026,0.713,0.319,0.580,0.549,�k�k��,4.5,��
2023/02/08,18:50,0.555,0.798,0.507,1.027,0.712,0.319,0.578,0.550,�k��,3.7,��
2023/02/08,19:00,0.554,0.801,0.508,1.025,0.711,0.319,0.577,0.550,�k��,3.2,��
2023/02/08,19:10,0.555,0.799,0.506,1.024,0.712,0.319,0.578,0.551,�k�k��,4.8,��
2023/02/08,19:20,0.555,0.799,0.506,1.025,0.713,0.319,0.579,0.551,�k��,4.3,��
2023/02/08,19:30,0.553,0.800,0.506,1.025,0.712,0.319,0.577,0.550,�k�k��,4.0,��
2023/02/08,19:40,0.554,0.801,0.506,1.026,0.712,0.320,0.578,0.550,�k��,3.5,��
2023/02/08,19:50,0.556,0.799,0.508,1.025,0.710,0.318,0.578,0.549,�k��,3.9,��
2023/02/08,20:00,0.554,0.801,0.504,1.026,0.711,0.319,0.579,0.549,�k�k��,4.1,��
2023/02/08,20:10,0.554,0.799,0.508,1.025,0.712,0.319,0.578,0.550,�k�k��,3.9,��
2023/02/08,20:20,0.554,0.800,0.505,1.024,0.713,0.319,0.578,0.550,�k�k��,3.5,��
2023/02/08,20:30,0.555,0.800,0.505,1.026,0.713,0.319,0.579,0.550,�k�k��,3.6,��
2023/02/08,20:40,0.557,0.801,0.508,1.026,0.711,0.319,0.576,0.551,�k��,3.1,��
2023/02/08,20:50,0.553,0.800,0.505,1.024,0.712,0.319,0.578,0.549,�k��,4.6,�L
2023/02/08,21:00,0.555,0.803,0.507,1.024,0.713,0.319,0.578,0.550,�k�k��,6.8,�L
2023/02/08,21:10,0.555,0.801,0.507,1.027,0.713,0.318,0.579,0.551,�k�k��,8.5,�L
2023/02/08,21:20,0.554,0.799,0.506,1.027,0.711,0.319,0.577,0.550,�k�k��,7.8,�L
2023/02/08,21:30,0.557,0.800,0.506,1.026,0.710,0.320,0.580,0.550,�k�k��,6.8,�L
2023/02/08,21:40,0.556,0.800,0.507,1.025,0.710,0.319,0.578,0.549,�k�k��,5.4,�L
2023/02/08,21:50,0.554,0.799,0.505,1.026,0.711,0.320,0.579,0.549,�k�k��,5.2,�L
2023/02/08,22:00,0.555,0.799,0.507,1.026,0.711,0.319,0.577,0.549,�k�k��,6.1,�L
2023/02/08,22:10,0.555,0.800,0.506,1.026,0.710,0.319,0.576,0.550,�k�k��,5.2,�L
2023/02/08,22:20,0.555,0.798,0.507,1.024,0.710,0.318,0.578,0.549,�k�k��,5.8,�L
2023/02/08,22:30,0.554,0.797,0.505,1.023,0.713,0.317,0.579,0.549,�k�k��,5.9,�L
2023/02/08,22:40,0.553,0.799,0.505,1.024,0.710,0.319,0.577,0.548,�k�k��,6.4,�L
2023/02/08,22:50,0.554,0.796,0.505,1.025,0.709,0.318,0.578,0.549,�k�k��,6.8,�L
2023/02/08,23:00,0.552,0.797,0.505,1.026,0.709,0.319,0.576,0.550,�k�k��,7.1,�L
2023/02/08,23:10,0.552,0.798,0.505,1.023,0.709,0.318,0.577,0.550,�k�k��,6.2,��
2023/02/08,23:20,0.553,0.798,0.506,1.024,0.709,0.318,0.577,0.550,�k�k��,5.1,��
2023/02/08,23:30,0.550,0.796,0.504,1.020,0.711,0.319,0.578,0.550,�k��,4.3,��
2023/02/08,23:40,0.551,0.795,0.504,1.024,0.710,0.320,0.577,0.550,�k��,4.1,��
2023/02/08,23:50,0.551,0.797,0.504,1.024,0.709,0.318,0.577,0.547,�k��,3.6,��
